TimeCST,TemperatureF,Dew PointF,Humidity,Sea Level PressureIn,VisibilityMPH,Wind Direction,Wind SpeedMPH,Gust SpeedMPH,PrecipitationIn,Events,Conditions,WindDirDegrees,DateUTC
12:53 AM,17.1,12.9,84,30.71,10.0,SE,3.5,-,N/A,,Clear,140,2013-11-24 06:53:00
1:53 AM,18.0,14.0,84,30.68,10.0,Calm,Calm,-,N/A,,Clear,0,2013-11-24 07:53:00
2:53 AM,18.0,14.0,84,30.69,10.0,South,5.8,-,N/A,,Clear,190,2013-11-24 08:53:00
3:53 AM,19.0,15.1,85,30.65,10.0,South,5.8,-,N/A,,Partly Cloudy,180,2013-11-24 09:53:00
4:53 AM,19.9,16.0,85,30.63,10.0,ESE,4.6,-,N/A,,Clear,110,2013-11-24 10:53:00
5:53 AM,21.9,18.0,85,30.62,10.0,South,8.1,-,N/A,,Overcast,170,2013-11-24 11:53:00
6:53 AM,21.9,18.0,85,30.61,10.0,South,5.8,-,N/A,,Clear,170,2013-11-24 12:53:00
7:53 AM,23.0,19.0,85,30.59,10.0,SSE,6.9,-,N/A,,Clear,150,2013-11-24 13:53:00
8:53 AM,25.0,21.0,85,30.57,10.0,SSE,5.8,-,N/A,,Partly Cloudy,150,2013-11-24 14:53:00
9:53 AM,28.0,21.9,78,30.56,10.0,South,9.2,-,N/A,,Overcast,180,2013-11-24 15:53:00
10:53 AM,32.0,24.1,73,30.52,10.0,SSW,17.3,23.0,N/A,,Overcast,200,2013-11-24 16:53:00
11:53 AM,33.1,24.1,70,30.47,10.0,South,16.1,21.9,N/A,,Overcast,180,2013-11-24 17:53:00
12:30 PM,35.6,26.6,70,30.36,10.0,South,12.7,-,N/A,,Overcast,190,2013-11-24 18:30:00
12:53 PM,35.1,27.0,72,30.43,10.0,SSW,15.0,24.2,N/A,,Overcast,210,2013-11-24 18:53:00
1:53 PM,37.9,27.0,65,30.38,9.0,South,18.4,25.3,N/A,,Overcast,190,2013-11-24 19:53:00
2:08 PM,37.4,28.4,70,30.31,9.0,South,18.4,24.2,0.00,,Overcast,190,2013-11-24 20:08:00
2:53 PM,36.0,28.0,73,30.35,10.0,South,13.8,21.9,0.00,,Overcast,180,2013-11-24 20:53:00
3:53 PM,36.0,28.0,73,30.33,10.0,South,12.7,20.7,N/A,,Overcast,180,2013-11-24 21:53:00
4:53 PM,36.0,27.0,70,30.30,10.0,South,15.0,23.0,N/A,,Overcast,190,2013-11-24 22:53:00
5:13 PM,33.8,28.4,81,30.22,10.0,South,13.8,-,N/A,,Overcast,170,2013-11-24 23:13:00
5:53 PM,32.0,28.0,85,30.28,10.0,South,16.1,23.0,N/A,,Overcast,180,2013-11-24 23:53:00
6:44 PM,30.2,26.6,86,30.20,10.0,South,15.0,-,N/A,,Overcast,170,2013-11-25 00:44:00
6:53 PM,32.0,27.0,82,30.27,10.0,South,15.0,-,N/A,,Overcast,170,2013-11-25 00:53:00
7:53 PM,30.9,26.1,82,30.25,10.0,South,17.3,21.9,N/A,,Overcast,180,2013-11-25 01:53:00
8:53 PM,30.0,25.0,82,30.22,10.0,South,12.7,25.3,N/A,,Overcast,190,2013-11-25 02:53:00
9:53 PM,28.9,24.1,82,30.21,10.0,South,15.0,24.2,N/A,,Overcast,180,2013-11-25 03:53:00
10:53 PM,28.0,23.0,81,30.20,10.0,South,13.8,19.6,N/A,,Overcast,190,2013-11-25 04:53:00
11:38 PM,26.6,23.0,86,30.12,10.0,South,12.7,-,N/A,,Overcast,180,2013-11-25 05:38:00
11:53 PM,27.0,23.0,85,30.19,10.0,South,12.7,-,N/A,,Overcast,190,2013-11-25 05:53:00